NOAA 16 DEB, 41369

Orbit data source: Space-Track

NOAA 16 DEB, 41369 is space debris in SSO originally from a launch on Thu, 21 Sep 2000 UTC launched from the Air Force Western Test Range (AFWTR). Debris objects in space refer to the collection of defunct objects orbiting the Earth. Examples of debris include non-operational satellites, rocket bodies, and fragments generated from explosions, collisions, or faulty payload assembly.

Loading next visibility...
Identifier
41369, 2000-055JN
Orbit
SSO
Country
Flag of USUS
Related business
Manufacturer
Unknown
Mission
Spacecraft
Bus & Motor
Unknown
Mass
Unknown
Launch date (UTC)
2000-09-21 (25 years ago)
Launch vehicle
Unknown
Launch site
Air Force Western Test Range (AFWTR)
Object type
Payload
Rocket body
Debris
Shape & HBR
Unknown shape, 0.1 m
Radar Cross Section
Small (<0.1 m²)

Expand to show TLE details & history
Last TLE update: 19 hours ago

TLE from 19 hours ago
0 NOAA 16 DEB
1 41369U 00055JN  25293.81451925  .00155026  00000-0  16708-1 0  9991
2 41369  98.7969  64.0862 0007399 351.9233   8.1860 14.87538136506621
Epoch: 2025-10-20T19:32Z
TLE epoch observation values (Epoch: 2025-10-20T19:32:54.463Z)
Latitude
Longitude
101.34784°
Altitude
603.518 km
Speed
7.561 km/s
True Right ascension
04h 16m 20s
True Declination
0° 00' 00"
Sunlit
Object was in full shadow at epoch
Visualization orbit readout
Latitude
Unknown
Longitude
Unknown
Altitude
Unknown
Speed
Unknown
Apparent Right ascension
Unknown
Apparent Declination
Unknown
Sunlit
N/A
Visualization observer readout
Local Sidereal Time
09:13:00
Azimuth
Unknown
Elevation
Unknown
Doppler factor
Unknown
Orbital elements
Apogee altitude
607.869 km
Perigee altitude
597.539 km
Semi-major axis
6,980.841 km
Eccentricity
0.00074
Inclination
98.7969°
RAAN
64.0862°
Arg. of periapsis
351.9233°
True anomaly
8.19808°
Mean anomaly
8.186°
Eccentric anomaly
8.19204°
Mean motion
3.72119 °/min
Orbital period
96.74 mins
BSTAR
0.016708
Loading maneuver chart data...
Computing Atmospheric mass density...

Documentation

Showing up to 5 results
|